(66412) = 1997 AS24 = 1999 NW7

Discovered at Socorro on 1999-07-13 by LINEAR.

Orbit

Orbit type: Main Belt

Note: WebGL enabled browser required.

epoch2023-09-13.0
epoch JD2460200.5
perihelion date2023-01-16.08093
perihelion JD2459960.58093
argument of perihelion (°)11.75161
ascending node (°)291.47574
inclination (°)8.13758
eccentricity0.1228939
perihelion distance (AU)2.1820984
Tisserand w.r.t. Jupiter3.5
ΔV w.r.t. Earth (km/sec)9.6
semimajor axis (AU)2.4878385
mean anomaly (°)60.26086
mean daily motion (°/day)0.25117160
aphelion distance (AU)2.794
period (years)3.92
P-vector [x]0.54605422
P-vector [y]-0.77963290
P-vector [z]-0.30658983
Q-vector [x]0.82732933
Q-vector [y]0.44430921
Q-vector [z]0.34367937
absolute magnitude15.66
phase slope0.15
uncertainty0
referenceMPEC 2024-A55
observations used1317
oppositions20
arc length (days)9842
first opposition used1997
last opposition used2023
residual rms (arc-secs)0.66
perturbers coarse indicatorM-v
perturbers precise indicator003Ek
first observation date used1997-01-13.0
last observation date used2023-12-25.0
computer nameMPCLINUX
JD of orbit computation2456789.324703
perihelion JD uncertainty (days)8.3671E-05
argument of perihelion uncertainty (°)3.8885E-05
ascending node uncertainty (°)3.4049E-05
inclination uncertainty (°)4.5356E-06
eccentricity uncertainty 4.3973E-08
perihelion distance uncertainty (AU)1.1280E-07
Minimum Orbit Intersection Distances (in AU)
for orbit epoch: 2460200.5, reference: E2024-A55
Mercury1.74004
Venus1.45642
Earth1.16669
Mars0.76464
Jupiter2.40431
Saturn6.29539
Uranus15.7331
Neptune27.3048

Observations

1338 total observations over interval: 1997 01 13.78716 – 2023 12 25.362799
These data are available for download (format description).

Date (UT) J2000 RA J2000 Dec Magn Location Ref
1997 01 13.78716 04 41 11.29 +27 17 28.4 20.0 V 012 – Uccle MPC 29975
1997 01 13.84329 04 41 09.76 +27 17 14.1   012 – Uccle MPC 29975
1997 01 14.83012 04 40 45.77 +27 12 43.8 18.9 V 012 – Uccle MPC 29975
1997 01 14.86045 04 40 44.94 +27 12 35.9 20.2 V 012 – Uccle MPC 29975
1997 01 14.89507 04 40 44.12 +27 12 26.4 19.0 V 012 – Uccle MPC 29975
1999 07 13.35556 21 23 45.42 -11 26 53.8 19.1   704 – Lincoln Laboratory ETS, New Mexico MPS 5654
1999 07 13.36801 21 23 44.95 -11 26 52.3 18.9   704 – Lincoln Laboratory ETS, New Mexico MPS 5654
1999 07 13.38042 21 23 44.47 -11 26 50.3 19.4   704 – Lincoln Laboratory ETS, New Mexico MPS 5654
1999 07 13.39278 21 23 43.97 -11 26 47.6 19.2   704 – Lincoln Laboratory ETS, New Mexico MPS 5654
1999 07 13.40516 21 23 43.42 -11 26 45.7 19.3   704 – Lincoln Laboratory ETS, New Mexico MPS 5654
1999 07 16.29549 21 21 45.54 -11 19 10.9 18.7   704 – Lincoln Laboratory ETS, New Mexico MPS 5654
1999 07 16.30821 21 21 44.99 -11 19 08.8 19.3   704 – Lincoln Laboratory ETS, New Mexico MPS 5654
1999 07 16.32096 21 21 44.33 -11 19 06.8 19.8   704 – Lincoln Laboratory ETS, New Mexico MPS 5654
1999 07 23.29291 21 16 11.23 -11 04 40.9 18.5   704 – Lincoln Laboratory ETS, New Mexico MPS 5654
1999 07 23.33015 21 16 09.25 -11 04 36.7 18.9   704 – Lincoln Laboratory ETS, New Mexico MPS 5654
1999 07 23.34247 21 16 08.59 -11 04 35.4 19.1   704 – Lincoln Laboratory ETS, New Mexico MPS 5654
1999 08 13.27374 20 55 59.66 -10 47 59.4 17.6 R 699 – Lowell Observatory-LONEOS MPS 59611
1999 08 13.28646 20 55 58.91 -10 47 59.5   699 – Lowell Observatory-LONEOS MPS 59611
1999 08 13.29920 20 55 58.12 -10 47 58.6   699 – Lowell Observatory-LONEOS MPS 59611
1999 09 05.13302 20 39 07.35 -10 50 11.4 18.2 R 699 – Lowell Observatory-LONEOS MPS 59611
1999 09 05.16363 20 39 06.50 -10 50 12.5   699 – Lowell Observatory-LONEOS MPS 59611
1999 09 05.19425 20 39 05.69 -10 50 12.9   699 – Lowell Observatory-LONEOS MPS 59611
2000 11 20.37026 06 12 00.53 +29 39 23.7 18.8   704 – Lincoln Laboratory ETS, New Mexico MPS 58735
2000 11 20.38643 06 11 59.79 +29 39 22.6 19.4   704 – Lincoln Laboratory ETS, New Mexico MPS 58735
2000 11 20.40135 06 11 59.11 +29 39 21.7 19.1   704 – Lincoln Laboratory ETS, New Mexico MPS 58735
2000 11 20.41620 06 11 58.46 +29 39 20.5 19.5   704 – Lincoln Laboratory ETS, New Mexico MPS 58735
2002 03 23.35775 11 36 43.63 -10 44 09.1 19.2   704 – Lincoln Laboratory ETS, New Mexico MPS 56893
2002 03 23.37224 11 36 42.74 -10 44 05.4 19.3   704 – Lincoln Laboratory ETS, New Mexico MPS 56893
2002 03 23.38619 11 36 41.96 -10 44 01.2 19.1   704 – Lincoln Laboratory ETS, New Mexico MPS 56893
2002 04 05.19571 11 25 28.88 -09 33 35.0 20.0   644 – Palomar Mountain/NEAT MPS 54377
2002 04 05.21655 11 25 27.85 -09 33 27.9 19.9   644 – Palomar Mountain/NEAT MPS 54377
2002 04 05.23625 11 25 26.88 -09 33 20.7 20.0   644 – Palomar Mountain/NEAT MPS 54377
2002 04 08.20344 11 23 12.19 -09 16 04.0 19.7   644 – Palomar Mountain/NEAT MPS 54377
2002 04 08.22449 11 23 11.21 -09 15 56.4 20.0   644 – Palomar Mountain/NEAT MPS 54377
2002 04 08.24544 11 23 10.29 -09 15 49.1 20.1   644 – Palomar Mountain/NEAT MPS 54377
2003 06 26.38036 22 16 03.04 -06 44 48.5 19.3   704 – Lincoln Laboratory ETS, New Mexico MPS 81350
2003 06 26.39081 22 16 03.26 -06 44 44.3 19.7   704 – Lincoln Laboratory ETS, New Mexico MPS 81350
2003 06 26.40068 22 16 03.41 -06 44 39.4 19.5   704 – Lincoln Laboratory ETS, New Mexico MPS 81350
2003 06 26.41058 22 16 03.51 -06 44 36.5 19.3   704 – Lincoln Laboratory ETS, New Mexico MPS 81350
2003 06 27.38568 22 16 16.60 -06 37 48.1 18.5 R 699 – Lowell Observatory-LONEOS MPS 81858
2003 06 27.39821 22 16 16.87 -06 37 44.2   699 – Lowell Observatory-LONEOS MPS 81858
2003 06 27.41082 22 16 16.81 -06 37 39.4   699 – Lowell Observatory-LONEOS MPS 81858
2003 06 27.42341 22 16 17.03 -06 37 33.9   699 – Lowell Observatory-LONEOS MPS 81858
2003 08 05.27783 22 02 17.13 -03 57 07.1 18.4   704 – Lincoln Laboratory ETS, New Mexico MPS 82600
2003 08 05.28955 22 02 16.50 -03 57 06.9 18.5   704 – Lincoln Laboratory ETS, New Mexico MPS 82600
2003 08 05.30167 22 02 15.83 -03 57 05.9 18.9   704 – Lincoln Laboratory ETS, New Mexico MPS 82600
2003 08 05.31428 22 02 15.12 -03 57 04.6 18.7   704 – Lincoln Laboratory ETS, New Mexico MPS 82600
2003 08 05.32533 22 02 14.65 -03 57 03.5 18.9   704 – Lincoln Laboratory ETS, New Mexico MPS 82600
2003 08 09.03398 21 58 57.89 -03 54 26.6 17.8 R 106 – Crni Vrh MPS 82873
2003 08 09.03968 21 58 57.50 -03 54 26.4 17.8 R 106 – Crni Vrh MPS 82873
2003 08 09.04972 21 58 56.95 -03 54 25.9 18.3 R 106 – Crni Vrh MPS 82873
2003 08 24.26506 21 44 26.97 -04 03 09.7 19.0   704 – Lincoln Laboratory ETS, New Mexico MPS 83187
2003 08 24.27747 21 44 26.18 -04 03 12.3 17.7   704 – Lincoln Laboratory ETS, New Mexico MPS 83187
2003 08 24.30301 21 44 24.62 -04 03 15.8 19.1   704 – Lincoln Laboratory ETS, New Mexico MPS 83187
2003 08 24.31650 21 44 23.84 -04 03 15.1 17.6   704 – Lincoln Laboratory ETS, New Mexico MPS 83187
2003 08 28.26310 21 40 44.64 -04 09 32.3 18.1   704 – Lincoln Laboratory ETS, New Mexico MPS 83187
2003 08 28.27734 21 40 43.85 -04 09 33.4 18.1   704 – Lincoln Laboratory ETS, New Mexico MPS 83187
2003 08 28.30513 21 40 42.26 -04 09 36.6 18.2   704 – Lincoln Laboratory ETS, New Mexico MPS 83187
2003 08 28.44029 21 40 34.90 -04 09 48.1 18.7   608 – Haleakala-AMOS MPS 83187
2003 08 28.45101 21 40 34.29 -04 09 48.9 18.5   608 – Haleakala-AMOS MPS 83187
2003 08 28.46165 21 40 33.69 -04 09 50.2 18.5   608 – Haleakala-AMOS MPS 83187
2003 09 02.24450 21 36 26.40 -04 18 49.4 18.8   704 – Lincoln Laboratory ETS, New Mexico MPS 83905
2003 09 02.25619 21 36 25.68 -04 18 51.3 18.9   704 – Lincoln Laboratory ETS, New Mexico MPS 83905
2003 09 02.26804 21 36 25.09 -04 18 52.6 18.9   704 – Lincoln Laboratory ETS, New Mexico MPS 83905
2003 09 02.27990 21 36 24.49 -04 18 54.0 19.1   704 – Lincoln Laboratory ETS, New Mexico MPS 83905
2003 09 13.29592 21 28 45.02 -04 41 27.4 18.8 R 699 – Lowell Observatory-LONEOS MPS 84912
2003 09 13.30931 21 28 44.42 -04 41 27.6   699 – Lowell Observatory-LONEOS MPS 84912
2003 09 13.32261 21 28 43.97 -04 41 30.3   699 – Lowell Observatory-LONEOS MPS 84912
2003 09 13.33585 21 28 43.51 -04 41 33.0   699 – Lowell Observatory-LONEOS MPS 84912
2003 09 14.42717 21 28 08.28 -04 43 42.8 20.5   608 – Haleakala-AMOS MPS 84912
2003 09 14.43733 21 28 07.91 -04 43 43.9 20.1   608 – Haleakala-AMOS MPS 84912
2003 09 14.44840 21 28 07.58 -04 43 45.9 20.7   608 – Haleakala-AMOS MPS 84912
2003 09 18.17928 21 26 22.98 -04 50 56.9 18.2   704 – Lincoln Laboratory ETS, New Mexico MPS 84912
2003 09 18.18851 21 26 22.80 -04 50 58.4 18.4   644 – Palomar Mountain/NEAT MPS 84912
2003 09 18.19115 21 26 22.64 -04 50 59.0 18.6   704 – Lincoln Laboratory ETS, New Mexico MPS 84912
2003 09 18.20296 21 26 22.29 -04 51 00.1 18.9   704 – Lincoln Laboratory ETS, New Mexico MPS 84912
2003 09 18.21061 21 26 22.21 -04 51 00.7 18.4   644 – Palomar Mountain/NEAT MPS 84912
2003 09 18.21474 21 26 22.01 -04 51 00.9 18.4   704 – Lincoln Laboratory ETS, New Mexico MPS 84912
2003 09 18.22674 21 26 21.68 -04 51 02.7 18.8   704 – Lincoln Laboratory ETS, New Mexico MPS 84912
2003 09 18.23231 21 26 21.62 -04 51 03.4 18.4   644 – Palomar Mountain/NEAT MPS 84912
2003 09 24.13491 21 24 27.93 -05 01 05.6 18.4   644 – Palomar Mountain/NEAT MPS 85934
2003 09 24.15709 21 24 27.57 -05 01 07.7 18.4   644 – Palomar Mountain/NEAT MPS 85934
2003 09 24.17814 21 24 27.24 -05 01 09.6 18.3   644 – Palomar Mountain/NEAT MPS 85934
2003 10 19.14253 21 28 20.30 -05 11 36.8 19.1   704 – Lincoln Laboratory ETS, New Mexico MPS 89141
2003 10 19.15445 21 28 20.60 -05 11 36.4 19.4   704 – Lincoln Laboratory ETS, New Mexico MPS 89141
2003 10 19.16630 21 28 21.00 -05 11 36.0 19.7   704 – Lincoln Laboratory ETS, New Mexico MPS 89141
2003 10 19.17778 21 28 21.30 -05 11 35.5 19.5   704 – Lincoln Laboratory ETS, New Mexico MPS 89141
2003 10 19.18936 21 28 21.68 -05 11 34.7 19.2   704 – Lincoln Laboratory ETS, New Mexico MPS 89141
2003 11 20.13857 21 56 09.00 -03 45 35.0 20.5 V 691 – Steward Observatory, Kitt Peak-Spacewatch MPS 91539
